Wind_Speed
47 46 44 42 38 33 34 30 34 44 45 44 37 40 37 32 30 27 24 23 19 18 21 26 25 21 23 18 16 14 15 14 12 10 11 10 10 11
50 50 47 46 42 38 36 35 36 34 45 43 42 40 37 37 34 32 30 28 26 25 22 25 26 25 24 20 18 17 17 16 15 14 13 12 11 12
51 52 51 49 49 43 42 40 41 42 36 31 34 38 40 37 37 35 34 33 32 30 28 24 27 29 24 21 20 20 19 18 17 15 14 14 12 12
54 54 54 53 51 51 46 45 43 44 43 42 39 34 32 37 37 38 37 36 35 34 32 30 29 28 28 27 23 22 21 20 19 17 16 16 15 15
57 57 55 56 56 56 55 49 48 47 45 45 43 40 38 34 37 40 40 39 37 36 35 34 33 32 29 29 26 25 23 21 20 19 18 17 17 17
60 59 56 57 58 59 59 58 52 50 48 47 46 44 42 40 38 39 41 42 41 40 40 38 37 34 32 31 29 26 23 22 21 20 19 19 18 18
59 60 59 59 58 59 61 62 60 57 54 52 51 51 49 46 46 42 42 42 44 43 42 41 40 38 36 32 30 27 23 24 23 22 21 20 19 19
59 63 62 57 59 59 60 61 62 61 61 59 58 58 56 55 50 46 45 44 48 45 44 44 43 42 34 30 29 26 26 25 24 23 21 21 21 20
60 62 59 53 61 60 60 59 61 63 66 65 66 66 64 59 50 48 48 47 51 47 45 47 47 44 37 32 31 28 27 27 25 23 23 22 21 21
55 57 70 68 66 64 59 59 66 65 64 66 63 59 53 48 53 55 51 48 46 44 43 42 44 45 40 35 33 31 29 27 24 24 24 23 22 23
55 55 57 67 74 64 66 57 57 65 63 53 32 38 43 46 50 51 50 46 45 46 44 44 44 41 41 39 36 34 32 28 27 26 25 25 24 23
46 51 57 55 52 61 65 62 67 62 58 50 52 48 53 52 55 53 52 51 48 45 49 47 44 42 38 43 40 40 36 33 30 28 27 26 22 22
45 50 53 52 53 52 55 59 63 57 53 52 58 61 65 63 60 55 53 50 50 52 45 49 50 45 39 22 39 40 37 33 32 30 25 24 24 22
44 48 50 50 50 50 51 56 57 55 60 59 65 66 64 63 60 55 54 50 50 49 46 43 44 46 44 40 28 29 36 34 32 30 25 25 26 25
39 45 45 47 50 46 47 50 47 52 52 58 62 66 62 63 59 55 53 50 47 45 44 41 39 35 36 41 37 30 29 35 32 26 25 25 24 25
32 37 40 42 45 46 42 43 40 48 50 56 56 57 57 57 55 54 50 47 46 43 38 37 33 32 32 33 32 30 25 22 25 25 23 23 23 22
26 31 36 39 46 45 44 41 40 43 47 50 54 54 53 52 50 50 52 49 48 49 44 37 31 29 25 27 29 27 26 23 21 19 20 19 20 20
24 32 34 36 42 43 44 43 42 47 48 48 56 55 52 50 52 52 51 50 50 48 43 40 37 34 31 28 26 24 21 21 20 20 20 19 18 18
25 33 34 35 36 38 39 41 44 43 45 50 53 55 49 47 52 52 50 47 47 46 42 41 38 38 36 32 28 25 21 18 19 20 18 17 16 16
24 29 32 32 34 34 36 39 41 40 47 50 52 49 45 47 48 49 50 48 46 42 41 39 37 36 34 31 24 20 17 18 19 17 16 15 15 14
24 25 29 31 29 29 30 35 41 42 45 46 46 43 42 43 43 46 44 43 41 41 42 40 34 31 27 22 20 18 17 16 15 14 14 14 15 15
25 25 27 28 27 25 27 32 40 40 41 42 41 39 39 39 42 44 43 45 45 43 41 37 35 30 25 23 20 15 14 15 15 14 14 14 13 11
23 23 22 23 23 22 24 29 34 37 37 37 38 39 40 40 41 42 44 45 42 39 37 36 32 27 24 20 17 15 15 14 14 12 12 12 14 15
Wind_Direction
232 232 231 229 228 229 229 238 224 205 210 211 216 221 230 237 241 241 237 240 243 245 227 220 231 233 243 252 261 267 277 285 281 277 276 273 273 273
233 233 230 229 227 230 228 232 232 230 220 224 223 230 236 237 237 243 244 244 244 248 244 242 232 236 251 258 260 262 269 270 272 277 279 277 275 277
235 232 232 230 228 229 228 229 229 229 232 239 236 241 241 239 237 238 239 245 246 248 250 249 251 245 249 254 254 255 258 263 268 270 275 278 278 277
238 234 232 231 229 229 229 229 229 231 236 241 243 241 239 239 238 239 237 241 245 248 248 250 251 254 247 248 250 253 254 257 261 263 267 271 277 276
242 237 234 233 232 231 231 230 231 233 236 239 241 242 242 240 236 235 234 237 241 245 248 249 247 252 251 246 249 251 252 252 255 261 264 268 269 270
247 243 240 237 235 233 233 233 233 234 235 236 237 241 241 239 236 236 234 236 236 238 242 246 249 251 253 247 248 249 252 253 254 258 260 261 265 269
250 246 244 243 239 238 237 236 236 237 237 237 237 237 237 235 234 237 236 238 236 235 238 242 247 248 246 245 245 246 250 252 252 255 258 262 265 268
247 245 244 244 243 240 241 242 242 241 241 238 239 239 239 238 236 235 235 233 228 232 235 239 243 245 245 242 241 240 243 247 248 250 254 258 262 267
249 252 240 255 244 239 239 242 246 245 244 247 245 243 240 237 237 238 238 247 239 240 234 236 238 242 241 236 235 237 239 244 245 247 250 255 262 266
253 248 249 256 254 253 244 245 241 243 247 245 251 257 250 244 249 251 248 245 236 238 233 233 238 239 237 235 237 236 238 241 243 245 247 256 260 264
251 256 251 252 253 250 254 249 256 245 250 248 236 247 245 248 250 247 241 237 236 239 236 234 235 233 234 233 234 234 237 236 239 242 249 254 256 262
249 252 250 252 254 259 254 259 255 249 250 238 237 247 242 245 247 246 246 242 236 234 233 228 229 227 227 232 230 230 233 230 237 238 247 251 253 259
256 249 251 251 253 255 257 256 256 255 246 242 244 239 241 243 241 239 240 241 240 241 241 229 228 228 223 225 230 233 235 230 230 238 235 239 257 263
256 256 256 253 254 255 254 256 260 255 246 245 245 242 241 238 239 237 238 239 239 242 240 233 232 229 227 227 221 222 224 225 228 234 235 244 247 255
258 256 257 258 258 257 257 258 256 248 250 244 241 242 245 243 239 233 234 233 232 233 234 234 236 234 232 231 226 222 217 220 225 227 233 240 247 255
261 258 255 255 256 255 258 260 251 247 249 247 248 246 245 240 237 235 232 227 222 223 226 230 227 227 223 223 223 212 203 204 216 224 231 241 251 258
274 264 252 250 253 252 250 251 251 247 242 245 244 245 243 241 239 236 231 226 222 216 211 210 210 213 212 217 205 204 206 211 220 222 231 240 250 258
266 265 259 249 251 254 256 251 245 244 240 243 243 240 237 235 233 226 224 220 217 213 208 202 195 195 190 191 200 202 202 216 224 235 239 243 250 254
261 259 263 261 258 257 256 252 247 244 246 240 240 239 234 234 228 223 216 212 210 210 205 201 196 198 192 191 195 198 205 216 229 237 242 246 248 251
266 263 266 266 265 261 260 254 246 243 237 232 229 228 225 222 219 217 212 207 205 201 197 197 200 200 201 200 193 198 202 213 226 234 241 244 252 253
282 278 269 266 265 263 258 253 244 238 233 229 227 230 228 223 218 215 210 207 206 200 195 194 196 202 193 183 188 196 203 214 224 230 238 248 258 267
281 280 277 270 267 264 259 251 242 234 232 230 229 227 223 219 216 210 204 201 200 197 193 190 188 189 187 187 190 194 202 215 222 229 242 255 265 268
282 279 283 277 271 266 258 249 243 234 231 230 225 219 213 210 210 207 199 198 194 191 190 184 182 183 191 194 191 196 207 214 222 237 253 263 273 282
Height
1533 1538 1543 1547 1550 1552 1555 1557 1558 1562 1563 1566 1570 1574 1578 1581 1583 1584 1586 1588 1590 1591 1593 1593 1593 1594 1593 1593 1594 1595 1595 1595 1595 1596 1595 1595 1594 1594
1525 1529 1535 1539 1543 1546 1549 1552 1554 1556 1558 1561 1564 1568 1572 1574 1577 1579 1581 1582 1584 1585 1586 1588 1589 1589 1589 1589 1590 1591 1591 1591 1591 1591 1591 1591 1591 1591
1516 1519 1524 1530 1535 1538 1541 1545 1548 1550 1553 1556 1560 1562 1564 1566 1569 1571 1573 1575 1577 1578 1580 1582 1582 1583 1584 1585 1586 1586 1587 1587 1587 1587 1587 1587 1587 1588
1505 1510 1514 1519 1524 1529 1532 1535 1540 1543 1547 1549 1552 1554 1555 1558 1561 1563 1566 1567 1569 1571 1572 1574 1575 1576 1577 1578 1579 1580 1580 1582 1582 1582 1582 1583 1583 1583
1495 1498 1503 1508 1512 1517 1521 1525 1530 1534 1537 1540 1543 1545 1547 1550 1552 1554 1556 1558 1560 1563 1565 1566 1567 1568 1569 1571 1572 1573 1574 1574 1576 1577 1578 1578 1578 1578
1484 1487 1493 1495 1500 1505 1509 1513 1519 1523 1526 1529 1531 1534 1537 1540 1542 1544 1545 1548 1550 1553 1554 1557 1559 1561 1561 1563 1565 1567 1568 1570 1571 1572 1572 1573 1572 1572
1472 1474 1480 1484 1489 1493 1497 1502 1506 1511 1514 1517 1519 1521 1523 1527 1528 1530 1534 1539 1540 1542 1545 1547 1550 1551 1551 1555 1558 1560 1562 1563 1564 1566 1566 1567 1567 1567
1456 1463 1465 1471 1476 1481 1484 1490 1493 1498 1500 1503 1506 1506 1510 1513 1517 1519 1522 1525 1529 1531 1532 1536 1538 1540 1544 1546 1550 1552 1554 1555 1557 1558 1560 1560 1560 1560
1445 1448 1450 1456 1459 1464 1469 1476 1478 1483 1486 1490 1490 1492 1496 1499 1507 1507 1509 1512 1515 1517 1521 1523 1528 1531 1534 1538 1541 1544 1546 1548 1550 1551 1553 1553 1554 1555
1432 1437 1439 1443 1447 1447 1451 1456 1459 1464 1469 1473 1476 1484 1486 1489 1493 1496 1500 1502 1504 1508 1511 1513 1518 1520 1525 1529 1532 1535 1538 1540 1543 1545 1545 1547 1548 1549
1424 1426 1428 1432 1434 1439 1439 1441 1447 1447 1454 1456 1461 1472 1473 1476 1482 1484 1486 1491 1492 1495 1499 1502 1505 1510 1516 1520 1523 1526 1528 1532 1535 1538 1538 1540 1542 1543
1414 1415 1419 1419 1422 1425 1428 1431 1433 1433 1441 1444 1450 1455 1459 1461 1465 1470 1473 1475 1479 1481 1485 1492 1494 1499 1504 1506 1511 1515 1518 1523 1526 1530 1531 1532 1534 1535
1401 1401 1405 1406 1409 1411 1414 1418 1418 1425 1427 1432 1436 1440 1444 1446 1449 1454 1457 1464 1466 1466 1471 1477 1480 1486 1492 1495 1499 1504 1509 1514 1517 1521 1524 1526 1527 1527
1388 1391 1391 1392 1395 1400 1402 1406 1410 1414 1413 1417 1419 1423 1426 1429 1434 1439 1443 1449 1453 1456 1462 1465 1469 1474 1478 1484 1489 1494 1499 1504 1509 1513 1516 1519 1520 1520
1376 1379 1380 1379 1382 1386 1389 1393 1397 1399 1400 1403 1404 1407 1410 1418 1422 1424 1430 1434 1441 1445 1450 1454 1460 1466 1470 1474 1479 1484 1490 1495 1501 1506 1509 1511 1513 1513
1366 1364 1368 1368 1371 1371 1375 1380 1382 1384 1385 1391 1394 1398 1403 1403 1407 1413 1418 1424 1431 1436 1441 1446 1452 1456 1459 1466 1472 1476 1483 1489 1494 1498 1501 1504 1506 1507
1355 1355 1356 1356 1359 1360 1362 1364 1369 1370 1373 1377 1381 1383 1387 1394 1396 1401 1407 1414 1418 1421 1425 1434 1444 1450 1454 1461 1465 1470 1475 1482 1487 1492 1494 1497 1498 1499
1346 1347 1345 1344 1346 1349 1351 1352 1353 1358 1359 1361 1367 1370 1373 1378 1383 1389 1393 1399 1404 1414 1415 1424 1431 1441 1449 1456 1461 1465 1470 1477 1481 1485 1487 1490 1492 1492
1336 1339 1337 1334 1335 1339 1342 1344 1345 1343 1347 1350 1356 1362 1360 1363 1374 1378 1383 1388 1396 1406 1410 1419 1426 1434 1441 1447 1453 1458 1464 1471 1475 1478 1481 1483 1486 1488
1331 1331 1330 1329 1330 1330 1332 1334 1335 1332 1337 1340 1346 1349 1351 1355 1361 1369 1376 1379 1389 1397 1407 1414 1421 1428 1434 1442 1449 1455 1460 1464 1468 1472 1474 1476 1479 1481
1326 1325 1324 1325 1324 1322 1322 1325 1327 1325 1329 1334 1337 1341 1345 1350 1355 1364 1370 1375 1386 1392 1400 1406 1416 1428 1432 1437 1444 1450 1455 1460 1463 1466 1469 1471 1472 1474
1320 1320 1319 1318 1317 1315 1314 1317 1323 1320 1322 1327 1332 1335 1339 1344 1350 1356 1360 1370 1377 1386 1394 1402 1408 1422 1430 1431 1437 1445 1451 1455 1458 1461 1463 1465 1467 1467
1315 1315 1313 1312 1310 1308 1308 1311 1315 1314 1317 1321 1327 1330 1331 1337 1345 1352 1356 1364 1373 1380 1390 1397 1406 1415 1424 1430 1434 1440 1447 1451 1453 1456 1459 1459 1459 1459